Location: Lussas
(44.6119°N, 4.4726°E)
Time: 13:20:52
(UTC+00:00)

SAR-Lupe-1 - Pass Details

Date: 24 April 2021
Orbit: 482 x 483 km, 98.2° (Epoch: 30 March)

Event Time Altitude Azimuth Distance (km) Brightness Sun altitude
Rises 20:12:37 0° 354° (N) 2,559 8.4 -15.6°
Reaches altitude 10° 20:15:34 10° 326° (NNW) 1,672 7.9 -16.0°
Maximum altitude 20:17:18 13° 297° (WNW) 1,478 7.7 -16.2°
Drops below altitude 10° 20:19:03 10° 268° (W) 1,666 7.5 -16.5°
Sets 20:21:59 0° 240° (WSW) 2,540 8.0 -16.9°
